This is the latest recevied weather packets stored in our database for station/object HB9MZI. If no packets are shown the sender has not sent any weather packets the latest 10 day(s).
| Time | Temp. | Humidity | Pressure | Rain* | Wind** | Luminosity | Snow |
|---|---|---|---|---|---|---|---|
| 1777523692 | 13.33° C | 100% | 997.6 hPa | 0 mm | 0.89 m/s, 51° | - | - |
| 1777523390 | 13.33° C | 100% | 997.5 hPa | 0 mm | 0 m/s | - | - |
| 1777521876 | 13.89° C | 100% | 997 hPa | 0 mm | 0 m/s | - | - |
| 1777521574 | 13.89° C | 100% | 996.9 hPa | 0 mm | 0.89 m/s, 56° | - | - |
| 1777521272 | 13.89° C | 100% | 996.9 hPa | 0 mm | 0.89 m/s, 60° | - | - |
| 1777520971 | 13.89° C | 100% | 996.9 hPa | 0.51 mm | 0 m/s | - | - |
| 1777520667 | 13.89° C | 100% | 996.9 hPa | 0.51 mm | 0 m/s | - | - |
| 1777519761 | 13.89° C | 100% | 996.7 hPa | 0.51 mm | 0 m/s | - | - |
| 1777518853 | 13.89° C | 100% | 996.7 hPa | 0.51 mm | 0 m/s | - | - |
| 1777518550 | 14.44° C | 100% | 996.7 hPa | 0.51 mm | 0 m/s | - | - |
| 1777517341 | 14.44° C | 100% | 996.8 hPa | 0 mm | 0.45 m/s, 44° | - | - |
| 1777445968 | 13.89° C | 100% | 994.1 hPa | 0 mm | 0 m/s | - | - |
| 1777444757 | 13.89° C | 100% | 993.9 hPa | 0 mm | 0 m/s | - | - |
| 1777443850 | 13.89° C | 100% | 993.9 hPa | 0 mm | 0 m/s | - | - |
| 1777443245 | 13.89° C | 100% | 993.9 hPa | 0 mm | 0 m/s | - | - |
| 1777442640 | 13.89° C | 100% | 993.9 hPa | 0 mm | 0 m/s | - | - |
| 1777442337 | 13.89° C | 100% | 993.9 hPa | 0 mm | 0 m/s | - | - |
| 1777441127 | 13.89° C | 100% | 993.7 hPa | 0 mm | 0 m/s | - | - |
| 1777341336 | 15.56° C | 100% | 992.6 hPa | 2.29 mm | 1.79 m/s, 162° | - | - |
| 1777340430 | 16.11° C | 100% | 992.6 hPa | 0.51 mm | 0 m/s | - | - |
| 1777339823 | 16.11° C | 100% | 992.8 hPa | 0.51 mm | 0.89 m/s, 193° | - | - |
| 1777339522 | 16.11° C | 100% | 992.9 hPa | 0.51 mm | 0 m/s | - | - |
| 1777338312 | 16.67° C | 100% | 993.1 hPa | 0.51 mm | 0 m/s | - | - |
| 1777334985 | 16.67° C | 100% | 992.1 hPa | 0 mm | 2.24 m/s, 204° | - | - |
* Rain latest hour (hover to see other rain measurements)
** Current wind speed in m/s (hover to see current wind gust speed)